GFSFLT2_con_3kmhel_000.txt.gz
Helicity
34 18 -4 -7 13 29 48 83 111 116 120 121 110 106 102 91 84 74 68 72 56 35 22 28 47 83 54 24 24 -5 -94 10
41 20 -2 -4 9 25 60 74 108 93 93 87 83 91 79 67 70 59 51 61 67 54 51 62 81 101 105 64 52 54 59 40
88 92 58 43 61 83 98 91 85 87 75 93 84 68 63 52 48 55 43 43 58 83 90 101 103 92 73 68 39 28 46 57
122 117 105 109 100 131 74 108 83 69 73 84 71 71 64 74 70 73 72 63 46 28 45 65 69 66 55 49 42 48 66 83
150 102 79 117 116 93 87 116 98 82 91 95 102 97 88 95 94 94 102 89 77 65 48 33 41 30 37 62 92 95 104 110
117 63 90 125 105 81 86 119 125 120 109 128 131 122 119 113 112 105 100 98 92 84 85 70 53 43 40 39 41 72 82 110
111 120 94 129 118 117 142 174 185 179 176 169 163 160 142 121 114 120 119 124 129 116 99 81 60 45 45 44 40 42 55 70
160 152 103 125 117 105 127 159 204 214 203 201 199 187 164 150 149 142 145 141 134 135 136 120 103 85 64 50 45 40 21 41
203 160 132 123 129 117 122 132 176 192 186 195 189 182 183 190 193 175 155 153 149 144 131 127 129 113 96 86 71 45 34 1
212 202 168 129 107 116 119 129 155 164 158 167 160 149 161 191 217 193 171 158 144 139 145 142 127 111 102 95 75 67 60 51
247 197 144 128 126 130 148 143 163 162 161 158 151 145 143 153 155 139 152 164 151 141 129 122 112 107 97 84 71 59 46 49
180 144 129 132 144 147 145 152 158 188 183 196 178 165 132 156 143 129 150 151 137 137 114 97 76 68 59 72 53 41 49 39
149 124 88 135 118 118 129 149 158 172 187 204 205 201 178 182 174 161 178 189 156 144 138 104 89 57 56 33 56 67 53 54
91 91 67 91 138 145 171 203 193 201 182 207 231 252 262 252 235 216 226 252 251 240 218 207 165 125 77 39 27 23 48 44
91 105 89 96 105 136 167 235 251 251 239 255 272 307 322 316 293 293 267 280 312 332 374 325 266 218 186 106 28 22 -14 -11
84 123 111 91 135 186 240 271 292 297 319 346 304 332 338 359 330 325 322 342 419 497 483 440 332 275 255 172 137 79 27 -26
105 140 127 113 148 194 266 286 337 319 336 338 336 376 415 395 405 459 515 556 532 452 337 405 335 293 319 139 112 76 47 55
176 189 178 154 125 121 249 246 272 310 281 338 433 498 499 400 523 627 623 595 648 608 538 376 267 325 328 135 103 86 70 73
217 165 119 83 72 147 144 187 201 211 217 288 461 615 700 582 622 654 691 737 629 590 495 612 269 306 221 170 125 112 109 99
235 235 164 144 120 149 134 153 165 147 157 252 450 581 691 784 801 833 743 483 524 609 586 327 168 173 182 162 143 124 113 123

GFSFLT2_con_3kmhel_003.txt.gz
Helicity
21 13 -1 3 17 56 78 93 108 107 86 81 81 73 66 53 46 35 22 18 20 20 3 3 11 37 45 46 51 79 98 59
28 14 24 36 37 63 89 83 94 84 67 73 72 60 57 55 45 28 23 17 14 22 36 49 64 59 74 96 91 93 108 90
54 63 68 57 68 82 71 77 66 67 54 55 52 41 48 43 39 48 52 52 39 38 59 66 64 56 45 56 49 38 59 59
92 96 75 79 68 88 42 55 68 78 79 91 74 60 48 59 68 73 64 60 57 47 43 62 53 40 23 30 6 -19 -44 -9
114 82 75 50 44 75 55 60 68 84 87 96 88 83 74 84 95 94 88 85 68 64 63 62 74 63 51 36 34 43 43 19
144 132 112 80 105 99 78 85 86 94 86 94 117 116 108 105 107 97 92 88 83 83 85 70 64 63 57 54 55 51 51 53
168 154 117 115 124 123 104 94 108 131 137 111 114 125 119 118 105 104 101 116 118 111 98 91 81 68 54 52 61 57 54 47
143 117 109 124 104 112 117 130 152 167 157 136 128 128 121 117 116 124 122 117 106 99 95 99 105 101 92 77 59 59 51 54
146 126 130 114 96 95 110 119 144 162 159 142 135 152 139 132 132 131 116 109 97 98 91 89 99 100 100 99 84 62 42 47
153 126 123 111 91 86 95 110 128 126 137 150 140 138 134 144 144 129 119 111 110 106 95 92 87 82 82 77 64 56 51 43
166 122 126 106 81 74 84 94 109 120 146 156 137 141 149 151 138 122 117 120 124 118 105 101 95 97 92 86 84 67 51 54
133 89 114 114 77 72 77 87 108 138 138 159 150 178 178 175 159 142 153 148 133 133 116 115 100 85 86 72 40 32 57 47
77 68 58 132 108 77 77 102 128 170 185 162 168 193 207 229 220 194 206 199 175 167 163 142 128 117 116 88 49 15 20 37
48 49 67 70 103 93 100 139 120 166 209 222 234 247 235 278 294 281 287 283 255 260 274 261 208 197 167 127 116 70 76 16
77 94 88 95 118 159 172 204 183 216 207 274 293 343 318 333 360 371 363 393 363 378 397 375 328 317 253 227 185 113 36 -38
56 79 89 112 146 188 194 213 201 243 253 249 257 308 323 346 368 424 422 435 370 386 408 458 504 475 440 394 349 255 103 31
129 133 146 168 167 159 165 175 216 248 235 210 221 250 292 299 351 427 441 366 401 397 476 512 526 546 507 411 366 290 181 79
319 315 286 241 167 111 111 144 171 180 153 165 195 205 204 247 393 521 528 493 647 499 556 657 619 454 544 430 380 333 289 104
252 234 195 151 140 105 115 114 119 137 146 165 157 196 246 338 523 745 753 889 847 819 769 727 678 624 511 441 385 291 178 227
227 158 90 84 123 156 148 135 163 166 159 156 196 286 404 554 690 710 775 951 818 806 832 692 411 356 236 134 162 181 242 247

GFSFLT2_con_3kmhel_009.txt.gz
Helicity
-7 -3 2 19 26 31 44 35 41 39 24 15 27 32 26 24 17 13 22 31 31 30 34 37 48 53 63 77 100 116 100 112
4 8 18 28 33 37 32 19 22 30 29 29 27 25 23 18 12 20 33 38 38 33 39 45 49 55 54 56 63 75 100 109
6 25 45 48 46 34 20 12 24 32 41 46 40 30 28 26 32 34 41 45 52 53 51 57 59 60 62 56 36 43 47 65
14 36 56 58 49 44 27 11 16 26 33 39 38 35 31 25 31 38 48 50 56 58 62 57 52 58 57 48 50 48 45 54
40 45 52 53 39 33 29 28 34 40 45 51 59 57 49 45 45 45 49 56 50 48 46 45 49 56 63 60 53 46 52 54
37 33 39 37 35 48 48 42 41 48 57 65 68 69 73 74 72 68 68 66 63 66 64 54 45 42 42 54 64 61 60 59
32 40 51 56 40 38 43 43 47 49 60 72 81 80 84 93 97 97 93 86 85 83 76 75 68 55 47 42 43 55 66 72
47 46 46 57 45 39 36 32 33 41 56 67 70 73 81 83 82 84 88 97 98 97 98 93 82 73 58 51 47 45 52 75
86 78 58 48 35 43 37 40 35 31 37 43 50 72 79 83 81 75 74 84 89 102 99 98 90 85 73 70 67 66 59 52
94 84 77 48 31 41 44 51 44 35 37 35 42 53 79 88 100 96 87 97 100 102 102 101 94 97 98 92 86 83 84 83
109 95 67 53 31 43 61 65 61 55 43 43 44 63 98 128 139 136 131 128 138 137 129 132 119 117 110 98 98 96 85 88
96 96 81 68 45 64 77 69 72 66 73 76 82 98 108 149 164 170 177 186 189 202 183 174 157 137 136 121 114 108 113 115
62 71 82 77 98 109 118 112 91 73 78 85 94 109 124 145 164 141 158 201 217 229 220 215 217 197 194 142 129 120 136 147
77 93 96 104 110 129 150 142 131 122 118 104 109 117 114 124 129 135 137 158 173 231 270 286 256 273 253 199 179 128 124 146
78 88 118 148 166 163 154 156 157 137 122 99 107 92 95 96 93 100 108 142 185 218 243 285 324 294 285 273 221 195 163 119
142 172 201 208 184 161 153 126 118 114 119 122 90 92 104 111 100 97 105 130 151 171 196 227 252 309 351 353 427 339 249 174
195 193 208 176 129 121 113 121 79 64 65 49 44 64 77 75 91 115 134 140 149 177 211 244 234 254 383 488 512 456 425 306
188 195 163 137 117 93 60 58 67 106 87 45 42 42 56 88 111 163 193 218 255 301 317 396 451 513 566 607 571 567 518 529
134 118 108 67 21 26 59 133 158 138 96 37 41 71 88 136 184 252 301 343 372 350 364 440 514 534 581 645 654 770 671 661
51 19 60 142 182 211 187 145 103 72 32 51 89 99 128 187 225 253 246 252 268 279 266 307 365 380 396 396 330 199 238 234

GFSFLT2_con_3kmhel_015.txt.gz
Helicity
40 47 41 34 29 36 41 26 28 28 32 36 41 50 53 57 61 62 57 53 48 44 41 39 36 34 32 27 14 -1 6 40
61 33 38 29 54 42 32 30 29 32 33 36 28 33 31 30 49 66 55 48 45 42 38 35 31 27 30 22 -1 -27 9 36
24 33 20 9 11 35 37 32 32 29 32 26 21 24 45 60 106 82 64 62 56 43 33 25 14 9 16 15 11 16 51 32
44 22 18 5 5 10 29 32 24 29 36 33 24 55 49 40 56 57 36 35 35 21 24 14 -6 38 56 7 33 94 39 70
30 18 1 -14 11 -6 3 15 24 22 12 16 23 28 43 37 49 54 58 51 26 51 48 35 100 65 69 84 76 56 58 83
23 26 15 4 -16 -7 2 5 23 19 53 29 35 36 51 46 40 44 44 65 65 44 49 59 38 37 45 58 57 64 66 89
20 49 29 30 16 -1 7 6 27 52 43 60 42 38 46 35 35 21 27 32 38 44 45 46 51 42 43 46 41 42 52 71
44 26 48 45 25 36 28 39 53 47 68 97 67 51 52 26 27 24 16 22 34 48 51 51 46 48 54 57 58 60 72 74
31 40 78 71 58 57 51 74 64 53 56 67 56 42 41 38 35 34 28 41 43 44 51 55 51 48 45 58 56 50 59 75
32 75 96 86 92 86 85 91 66 42 53 63 68 57 58 59 57 56 57 73 58 68 70 73 76 80 100 92 84 93 90 108
47 100 69 105 134 95 102 90 50 49 94 75 138 108 125 115 99 81 92 85 86 86 74 77 81 83 91 95 121 119 112 114
84 96 122 199 155 101 86 75 75 90 97 127 174 124 174 134 124 111 105 91 93 99 100 81 87 91 70 97 124 155 172 151
112 183 172 117 133 127 121 108 127 111 155 199 171 207 173 143 133 144 138 131 120 117 97 84 93 87 101 110 125 121 150 170
127 129 141 166 156 135 113 128 121 142 104 232 122 190 134 139 172 152 164 148 120 99 86 100 108 107 110 116 150 169 195 219
157 177 195 191 162 152 150 115 128 141 180 143 145 148 116 129 111 126 132 120 124 106 114 112 125 120 118 145 166 197 169 131
177 187 167 139 131 126 90 74 100 126 78 143 163 99 108 125 122 130 142 133 95 93 89 154 199 178 159 182 196 193 182 160
159 132 131 126 97 83 64 107 176 124 130 173 146 151 186 135 143 155 121 68 72 50 97 152 165 187 229 274 360 335 337 325
136 115 106 80 86 103 123 88 88 104 130 146 176 181 148 138 134 118 45 12 41 120 263 233 191 211 223 261 252 249 348 295
110 94 79 101 97 83 107 119 135 141 158 182 164 136 124 111 117 60 59 132 164 291 316 272 242 154 173 191 220 249 243 245
105 64 55 96 150 183 176 181 186 191 193 139 103 89 69 86 56 197 196 239 318 292 213 152 69 81 102 83 110 129 176 233

GFSFLT2_con_3kmhel_021.txt.gz
Helicity
-11 4 31 26 25 29 26 22 20 18 22 31 15 25 20 23 38 35 37 30 23 20 4 -2 9 11 1 -6 11 30 46 92
-12 17 5 -8 -29 10 12 14 12 0 14 22 7 27 7 1 27 16 9 10 12 0 -6 -1 15 25 24 17 31 58 56 53
-1 -3 -20 -13 -35 -14 -17 -8 0 -13 6 4 -12 10 19 20 27 27 9 24 11 -8 1 5 4 9 6 20 19 57 48 63
30 24 3 14 8 15 -5 -29 -33 -29 -31 -1 -12 0 13 27 34 32 14 18 9 -6 2 6 23 37 40 19 35 22 14 28
153 67 56 30 49 21 15 -16 -29 -1 4 45 49 53 58 65 49 30 39 15 30 19 32 51 48 70 72 76 53 22 2 13
188 122 85 42 43 55 38 63 77 87 75 75 75 67 73 79 54 30 12 25 31 40 49 49 47 39 56 78 81 76 62 61
259 194 87 51 67 50 69 121 100 110 123 109 91 83 59 47 35 26 24 34 47 55 57 51 47 40 54 60 57 90 96 95
255 280 101 78 73 94 67 114 97 137 117 104 99 88 57 66 56 52 46 53 54 63 58 49 49 68 83 97 101 118 135 130
327 394 58 144 -10 132 115 89 110 132 119 126 119 121 89 100 95 80 74 82 78 73 63 57 57 64 68 84 92 105 148 163
186 192 85 -39 -4 131 149 145 115 107 132 135 177 186 171 167 126 93 101 104 96 101 99 79 77 83 77 81 101 112 127 165
212 144 -6 45 69 164 161 140 96 104 123 160 185 235 241 212 160 121 108 105 109 121 137 115 97 75 68 74 83 100 109 99
254 225 243 171 191 194 219 217 217 199 199 178 173 166 182 189 186 157 138 124 114 111 91 76 64 78 96 112 119 111 123 145
280 302 272 250 237 191 204 238 207 162 127 154 179 223 304 245 243 257 215 137 119 106 92 99 112 109 115 113 127 128 122 102
218 181 179 234 260 260 251 206 219 260 273 269 273 307 316 314 262 211 190 161 142 119 104 87 98 115 120 125 112 89 82 105
145 110 119 161 195 168 175 171 164 166 167 154 186 227 255 236 184 167 130 110 112 112 113 136 120 120 161 147 150 163 122 80
148 81 82 105 118 125 126 113 123 118 151 184 200 208 206 157 120 94 97 101 89 81 104 84 97 104 85 170 121 99 60 49
79 135 138 113 94 63 62 115 152 187 190 198 178 143 111 115 117 97 80 49 62 94 108 143 151 146 140 99 94 110 141 116
56 107 125 148 181 249 279 281 273 259 221 150 77 57 77 52 21 36 38 63 81 92 102 142 155 141 143 145 133 108 86 104
170 173 156 153 153 172 219 257 258 238 186 114 110 84 47 53 52 31 60 90 106 109 136 140 103 109 88 98 90 88 80 71
238 223 196 216 213 265 257 231 183 166 135 93 110 129 94 65 44 56 114 118 107 115 92 71 70 82 69 81 91 102 101 87

GFSFLT2_con_3kmhel_024.txt.gz
Helicity
-27 -18 -6 12 25 35 30 16 5 9 -1 6 7 -9 -13 -15 -10 -10 -14 -13 -16 -22 -20 -1 8 16 21 32 47 92 90 76
-37 -38 -25 -7 -3 -0 -4 -11 -5 -1 -4 5 4 -12 -17 -25 -20 -21 -17 -19 -35 -41 -40 -33 -15 -7 -7 3 28 39 58 62
-55 -26 -14 -23 -42 -40 -26 -30 -24 -9 -2 8 6 -20 -10 -6 -10 -34 -22 -20 -39 -40 -39 -32 -13 -12 -11 -11 3 23 15 25
-12 -30 -26 -12 -12 -18 -15 -36 -43 -20 -12 1 3 8 1 2 -10 -25 -28 -21 -38 -43 -39 -25 -0 30 36 21 31 18 27 19
-0 -1 -35 22 15 6 -11 -6 -24 -18 -3 1 25 30 28 8 -8 -8 -6 -11 10 4 5 19 17 34 31 44 55 56 60 46
41 7 9 6 23 49 32 47 32 11 10 38 85 85 71 53 41 31 30 32 25 23 30 31 33 34 38 29 44 68 76 80
95 115 99 67 86 71 75 78 71 58 70 77 107 105 92 98 76 67 63 63 61 59 49 36 26 25 26 28 42 65 78 105
227 170 193 142 74 89 119 147 136 125 99 101 111 114 130 131 128 110 109 97 81 74 68 64 51 41 30 37 38 49 64 87
260 244 70 113 85 70 99 124 146 125 110 118 128 136 158 147 142 138 120 98 102 104 92 91 80 53 34 42 55 72 73 65
264 249 89 52 36 88 90 115 115 142 114 148 179 207 191 173 146 142 133 149 128 108 74 58 31 24 19 28 48 55 58 56
253 144 91 36 87 112 156 165 159 150 173 191 229 250 243 217 211 203 239 193 155 120 105 61 65 70 51 47 48 55 65 74
269 211 126 149 194 213 221 234 296 332 364 375 392 363 348 298 257 292 238 188 177 137 103 99 88 87 73 77 67 67 72 78
223 261 217 177 199 251 301 329 315 337 353 354 343 319 263 236 223 202 181 169 148 148 116 111 104 77 76 92 90 98 123 96
177 170 177 167 152 147 156 151 167 150 180 241 250 236 191 191 151 160 184 156 146 121 107 89 75 99 75 68 59 74 93 140
94 80 84 106 129 139 161 133 128 154 159 123 105 65 73 101 114 95 83 82 105 125 145 154 115 94 103 98 90 101 37 -8
102 72 50 38 84 106 112 120 118 76 70 71 76 54 47 54 65 74 90 78 95 80 96 84 94 109 92 165 136 122 83 49
76 73 43 68 101 85 87 122 111 138 150 167 145 91 64 64 94 63 34 21 48 72 85 106 84 81 81 77 81 116 103 107
100 120 101 129 149 135 170 189 198 200 176 144 92 76 80 93 64 34 -1 8 28 41 48 58 78 97 102 111 104 87 72 78
116 163 173 201 239 250 241 237 216 186 141 123 138 112 67 38 33 6 -30 -11 22 47 62 88 104 113 102 98 86 94 92 101
223 208 194 183 223 230 223 164 117 68 77 93 137 99 75 45 48 10 30 56 60 70 85 86 77 74 68 74 96 92 89 59

GFSFLT2_con_3kmhel_027.txt.gz
Helicity
-21 -11 22 31 13 8 6 2 1 -2 -9 -22 -24 -14 -16 -14 -16 -20 -22 -28 -37 -33 -25 -11 -2 -0 9 26 45 39 42 46
-26 -14 -1 -18 -15 -4 -6 -8 -6 -14 -28 -27 -23 -22 -20 -17 -25 -25 -29 -39 -48 -49 -42 -30 -18 -7 3 1 13 29 31 28
-42 -31 -54 -38 -28 -42 -26 -25 -20 -20 -17 -5 -10 -17 -16 -18 -30 -35 -37 -50 -54 -46 -39 -40 -33 -17 -8 -2 13 18 15 18
-89 -75 -44 -19 -29 -52 -46 -30 -29 -16 -9 -2 -5 -9 -8 -7 -14 -27 -25 -30 -30 -26 -19 -15 3 18 24 13 23 29 40 36
-69 -60 -34 -6 -23 -31 -29 -16 -10 -7 13 21 8 9 -5 16 22 25 35 35 40 33 33 38 32 26 23 27 27 30 45 63
-38 -24 11 -26 -11 -2 11 31 22 13 18 26 50 60 66 86 87 74 74 59 68 60 51 36 27 13 5 13 18 24 41 52
11 11 1 -20 -3 24 27 51 48 44 51 58 75 97 118 99 113 103 105 88 87 75 64 51 42 37 36 33 25 27 34 49
69 51 27 50 68 59 25 64 68 65 82 74 89 115 131 137 155 155 152 143 126 106 91 87 54 48 36 53 49 42 52 68
135 95 75 89 94 81 79 117 100 81 102 114 145 176 204 217 239 229 225 182 155 125 114 91 57 59 49 48 45 66 78 64
190 154 122 104 146 121 151 161 164 160 174 234 299 327 336 308 271 251 202 159 131 112 64 35 39 20 4 19 35 54 91 116
341 255 132 71 103 184 260 269 271 294 361 402 407 396 349 287 262 221 173 146 98 71 86 73 81 84 69 84 103 90 79 110
339 202 194 134 307 311 297 290 314 356 349 353 320 291 273 235 177 151 116 94 107 149 121 101 94 77 87 103 114 120 170 173
201 209 229 240 230 192 230 215 237 276 267 239 212 177 143 131 111 105 86 94 88 94 69 104 101 126 86 90 66 119 141 151
228 257 183 115 106 106 141 177 188 147 120 118 104 102 92 58 22 5 34 81 122 118 120 112 113 144 118 94 86 87 92 102
98 52 46 62 80 92 117 125 94 114 124 82 71 77 62 38 36 23 45 55 75 90 131 152 132 114 138 124 121 131 81 31
19 12 13 30 43 59 57 60 99 105 48 10 35 65 54 47 37 49 64 35 43 42 76 75 101 102 109 130 110 100 54 6
26 48 70 62 78 91 96 123 115 98 109 107 96 102 80 59 75 63 37 -4 -35 -21 5 27 21 31 48 63 79 90 110 95
103 110 93 111 146 160 177 168 150 134 100 119 122 111 106 103 78 46 10 -31 -12 8 27 19 26 35 65 91 109 114 107 110
130 127 123 148 194 204 170 157 144 145 145 137 109 101 114 106 114 78 26 32 28 53 49 65 56 72 107 135 148 125 111 117
132 133 124 162 187 180 157 128 135 125 117 97 109 121 137 118 124 110 82 67 71 98 106 93 81 77 100 127 132 130 127 92

GFSFLT2_con_3kmhel_030.txt.gz
Helicity
-12 1 17 31 18 2 -2 -10 -22 -27 -30 -29 -22 -24 -20 -14 -4 -1 -3 -8 -7 -2 4 8 12 22 21 17 15 12 20 21
-13 -8 -0 -6 -10 -6 -10 -20 -28 -28 -24 -17 -13 -16 -20 -21 -10 -14 -6 -5 -9 -8 -6 -1 -3 3 9 9 12 13 9 9
-43 -11 -18 -20 -23 -39 -25 -27 -26 -21 -11 -6 -9 -14 -15 -15 -14 -15 1 -1 -5 -7 -6 -6 4 6 7 6 7 2 14 22
-42 -41 -46 -51 -54 -52 -39 -37 -29 -19 -11 -5 4 9 13 18 21 16 29 39 34 35 37 41 31 12 6 17 13 12 10 12
-53 -58 -59 -64 -61 -38 -40 -30 -18 -13 -9 8 20 32 30 46 52 49 57 74 66 67 59 48 45 20 10 13 25 32 32 34
-52 -57 -64 -72 -43 -14 -13 -20 -0 14 26 27 42 56 66 75 87 92 119 111 124 115 92 83 76 47 27 17 19 21 36 51
-33 -23 -50 -44 -28 -15 -3 -3 16 39 51 57 74 93 107 136 173 177 175 151 138 127 113 105 83 64 49 26 17 26 38 49
-7 -11 -27 -25 -21 -6 -6 2 32 62 98 124 128 140 178 230 239 225 216 177 147 126 103 80 60 59 58 48 32 35 39 50
80 84 57 51 43 57 54 56 94 133 173 190 206 227 265 274 267 243 200 158 145 125 118 111 101 61 47 33 31 42 53 83
213 212 165 139 82 120 101 241 199 250 269 268 277 276 255 238 198 175 154 143 118 99 102 106 67 43 43 50 62 69 89 108
435 332 293 180 184 160 203 233 280 264 272 267 242 229 213 187 156 133 104 49 29 58 68 41 52 104 110 117 118 101 101 144
623 467 308 264 216 188 258 268 219 199 189 156 143 134 107 66 79 90 73 57 49 56 63 80 60 86 84 120 84 98 165 167
461 313 216 98 75 90 122 96 101 124 123 124 131 108 114 87 64 76 73 85 70 66 48 83 86 107 72 75 55 55 145 180
69 26 -73 -42 20 22 50 44 94 131 142 168 145 114 84 60 40 39 62 80 93 90 89 69 59 76 56 19 80 69 104 108
-37 -58 -38 20 72 98 109 137 129 122 156 156 111 74 69 51 43 70 74 57 57 44 69 99 126 97 129 102 98 70 74 -13
90 75 55 32 38 68 85 80 114 148 164 121 111 96 61 49 56 75 93 93 98 60 36 29 36 47 62 43 47 58 46 14
51 76 77 41 60 84 116 168 180 182 145 139 129 95 73 68 82 94 83 51 8 -16 -5 26 73 93 95 83 62 41 23 33
115 53 66 94 110 133 163 171 161 142 117 124 122 106 89 79 86 103 75 56 60 89 69 72 83 88 100 90 66 72 69 89
95 110 130 122 144 179 181 147 120 110 124 147 132 140 157 118 125 113 121 118 108 145 90 92 126 153 152 124 107 102 111 128
125 155 118 131 168 161 114 98 108 112 120 131 124 140 132 138 150 183 178 198 206 191 188 162 157 108 74 75 91 102 127 123